Weather History for Valparaiso, IN

Change the Weather History Date:

Sunday, April 27, 2014

  Actual Average Record
Temperature  
Mean Temperature 53 °F 53 °F  
Max Temperature 66 °F 64 °F 76 °F (2009)
Min Temperature 39 °F 42 °F 28 °F (2012)
Degree Days  
Heating Degree Days 12 12  
Month to date heating degree days 482 447  
Since 1 July heating degree days 6931 6024  
Cooling Degree Days 0 0  
Month to date cooling degree days 0 0  
Year to date cooling degree days 0 0  
Growing Degree Days 2 (Base 50)    
Moisture  
Dew Point 34 °F    
Average Humidity 56    
Maximum Humidity 82    
Minimum Humidity 35    
Precipitation  
Precipitation T in 0.14 in 1.13 in (1999)
Month to date precipitation 1.98 3.05  
Year to date precipitation 5.40 8.70  
Sea Level Pressure  
Sea Level Pressure 29.97 in    
Wind  
Wind Speed 19 mph (East)    
Max Wind Speed 29 mph    
Max Gust Speed 35 mph    
Visibility 10 miles    
Events      
T = Trace of Precipitation, MM = Missing Value Source: NWS Daily Summary

Daily Weather History Graph

Daily Weather History Graph

Search for Another Location

Airport:

Trip Planner

Search our weather history database for the weather conditions in past years. The results will help you decide how hot, cold, wet, or windy it might be!

Date:

Astronomy

Apr. 27, 2014 Rise Set
Actual Time 5:50 AM CDT 7:41 PM CDT
Civil Twilight 5:20 AM CDT 8:11 PM CDT
Nautical Twilight 4:44 AM CDT 8:47 PM CDT
Astronomical Twilight 4:05 AM CDT 9:26 PM CDT
Moon 4:52 AM CDT 6:13 PM CDT
Length of Visible Light 14h 50m
Length of Day
13h 50m
Waning Crescent, 3% of the Moon is Illuminated
Apr 27
Waning Crescent
Apr 29
New
May 6
First Quarter
May 14
Full
May 21
Last Quarter

Hourly Weather History & Observations

Time (CDT) Temp. Windchill Dew Point Humidity Pressure Visibility Wind Dir Wind Speed Gust Speed Precip Events Conditions
12:53 AM 39.0 °F 33.4 °F 34.0 °F 82% 30.01 in 10.0 mi NE 8.1 mph - N/A   Clear
1:53 AM 42.1 °F 35.2 °F 35.1 °F 76% 30.01 in 10.0 mi East 12.7 mph - N/A   Clear
2:53 AM 45.0 °F 37.9 °F 36.0 °F 71% 30.03 in 10.0 mi East 16.1 mph - N/A   Scattered Clouds
3:53 AM 43.0 °F 34.5 °F 37.0 °F 80% 30.05 in 10.0 mi East 19.6 mph - 0.00 in   Overcast
4:53 AM 42.1 °F 34.5 °F 36.0 °F 79% 30.09 in 10.0 mi East 15.0 mph - 0.00 in   Overcast
5:53 AM 41.0 °F 34.3 °F 36.0 °F 82% 30.07 in 9.0 mi East 11.5 mph - N/A   Overcast
6:53 AM 41.0 °F 32.2 °F 33.1 °F 73% 30.09 in 10.0 mi East 18.4 mph 26.5 mph N/A   Mostly Cloudy
7:53 AM 42.1 °F 31.9 °F 32.0 °F 67% 30.03 in 10.0 mi East 26.5 mph 29.9 mph N/A   Overcast
8:53 AM 46.0 °F 38.0 °F 34.0 °F 63% 30.04 in 10.0 mi East 21.9 mph 31.1 mph N/A   Scattered Clouds
9:53 AM 51.1 °F - 34.0 °F 52% 30.01 in 10.0 mi ESE 18.4 mph - N/A   Clear
10:53 AM 53.1 °F - 34.0 °F 48% 29.95 in 10.0 mi ESE 25.3 mph 34.5 mph N/A   Clear
11:53 AM 59.0 °F - 35.1 °F 41% 29.96 in 10.0 mi East 18.4 mph 28.8 mph N/A   Clear
12:53 PM 59.0 °F - 34.0 °F 39% 29.93 in 10.0 mi East 18.4 mph 31.1 mph N/A   Clear
1:53 PM 63.0 °F - 35.1 °F 35% 29.92 in 10.0 mi East 19.6 mph 29.9 mph N/A   Clear
3:53 PM 64.0 °F - 37.0 °F 37% 29.86 in 10.0 mi East 25.3 mph 33.4 mph N/A   Clear
4:53 PM 64.0 °F - 36.0 °F 35% 29.87 in 10.0 mi East 23.0 mph 29.9 mph N/A   Clear
5:53 PM 61.0 °F - 35.1 °F 38% 29.89 in 10.0 mi East 21.9 mph 32.2 mph N/A   Clear
6:53 PM 57.9 °F - 34.0 °F 41% 29.91 in 10.0 mi East 17.3 mph 31.1 mph N/A   Mostly Cloudy
7:53 PM 55.0 °F - 33.1 °F 43% 29.90 in 10.0 mi East 17.3 mph 29.9 mph N/A   Clear
8:53 PM 53.1 °F - 30.9 °F 43% 29.90 in 10.0 mi East 16.1 mph 27.6 mph N/A   Clear
9:53 PM 50.0 °F - 30.9 °F 48% 29.88 in 10.0 mi East 20.7 mph 28.8 mph N/A   Partly Cloudy
10:53 PM 48.9 °F - 30.9 °F 50% 29.88 in 10.0 mi East 20.7 mph 27.6 mph N/A   Clear